Regional Weather Roundup
Issued by NWS

Home | Current Version | Previous Version | Text Only | Print | Product List | Glossary On
Versions: 1 2 3 4 5 6 7 8 9 10 11 12 13 14 15 16 17 18 19 20 21 22 23 24 25 26 27 28 29 30 31 32 33 34 35 36 37 38 39 40 41 42 43 44 45 46 47 48 49 50
000
ASUS43 KDMX 122107
RWRIA

WEATHER ROUNDUP FOR IOWA
NATIONAL WEATHER SERVICE DES MOINES IA
400 PM CDT SAT JUL 12 2014

NOTE: "FAIR" INDICATES FEW OR NO CLOUDS BELOW 12,000 FEET WITH NO
SIGNIFICANT WEATHER AND/OR OBSTRUCTIONS TO VISIBILITY.

* - THESE STATIONS ARE NOT NWS STATIONS...THUS NOT UNDER NWS
QUALITY CONTROL.  THEY ALSO DO NOT REPORT WEATHER SUCH
AS PRECIPITATION OR FOG.

IAZ001>003-012>014-020>022-031>034-043>046-122200-
   NORTHWEST IOWA

CITY           SKY/WX    TMP DP  RH WIND       PRES   REMARKS
CARROLL *      CLOUDY    72  70  94 N13       30.01R
CHEROKEE *     CLOUDY    72  68  88 N3        30.02F
DENISON *      CLOUDY    72  68  88 NE8G16    30.00S
LE MARS *      PTSUNNY   73  68  83 CALM      30.01F
ORANGE CITY *  PTSUNNY   75  68  78 CALM      30.02F
SHELDON *      MOSUNNY   77  66  69 CALM      30.00F
SIOUX CITY     CLOUDY    77  68  73 NE6       30.01F
SPENCER        PTSUNNY   72  68  87 W3        30.02F
STORM LAKE *   MOSUNNY   68  68 100 NE7       30.03F
$$

IAZ055>058-069>071-079>083-090>094-122200-
   SOUTHWEST IOWA

CITY           SKY/WX    TMP DP  RH WIND       PRES   REMARKS
ATLANTIC *     CLOUDY    84  75  74 NW10      29.96S HX  92
AUDUBON *      MOSUNNY   79  73  83 N8        30.01R HX  82
CLARINDA *     MOSUNNY   90  72  55 SW13      29.96F HX  96
COUNCIL BLFS * MOSUNNY   82  77  83 N12G17    29.97S HX  91
CRESTON *      MOSUNNY   88  75  66 W14       29.97S HX  97
HARLAN  *      PTSUNNY   79  73  83 N12       30.02S HX  82
LAMONI         MOSUNNY   88  74  63 S17       29.96F HX  96
RED OAK *      MOSUNNY   88  75  66 SW9       29.96S HX  97
SHENANDOAH *   MOSUNNY   90  77  66 VRB3      29.95F HX 102
$$

IAZ047>049-059>061-072>074-084-122200-
   CENTRAL IOWA

CITY           SKY/WX    TMP DP  RH WIND       PRES   REMARKS
AMES           CLOUDY    81  73  76 NE5       29.95F HX  86
ANKENY *       MOSUNNY   84  75  74 N8        29.94F HX  92
CHARITON *     SUNNY     90  75  62 S17G23    29.93F HX 100
DES MOINES     PTSUNNY   88  74  63 NW7       29.93F HX  96
GRINNELL*      CLOUDY    84  73  70 CALM      29.95F HX  91
KNOXVILLE *    SUNNY     90  75  62 W6        29.92F HX 100
MARSHALLTOWN   CLOUDY    80  73  79 VRB3      29.96F HX  84
PELLA *        PTSUNNY   91  75  59 SW5       29.94F HX 102
PERRY *        CLOUDY    79  72  78 N5        29.98R HX  82
$$

IAZ004>006-015-016-023>025-035-036-122200-
   NORTH CENTRAL IOWA

CITY           SKY/WX    TMP DP  RH WIND       PRES   REMARKS
ALGONA *       DRIZZLE   70  68  94 CALM      30.02F
CLARION *      LGT RAIN  68  68 100 N8        30.00S
ESTHERVILLE    PTSUNNY   76  68  76 SW7       30.00F
FORT DODGE *   CLOUDY    68  64  88 N6        30.02S
MASON CITY     LGT RAIN  69  67  93 N6        30.02F
FOREST CITY *  DRIZZLE   68  68 100 NW6       30.01S
IOWA FALLS *   CLOUDY    77  70  78 N3        29.99F
$$

IAZ007>011-017>019-026>030-037>042-050>054-066-122200-
   NORTHEAST IOWA

CITY           SKY/WX    TMP DP  RH WIND       PRES   REMARKS
CEDAR RAPIDS   PTSUNNY   84  74  71 CALM      29.94F HX  91
CHARLES CITY * LGT RAIN  68  64  88 N10       29.98F
CLINTON *      PTSUNNY   82  73  74 S8        29.98F HX  88
DECORAH *        N/A    N/A N/A N/A MISG        N/A
DUBUQUE        CLOUDY    80  70  71 SW6       29.97F HX  83
MONTICELLO *   CLOUDY    81  73  78 CALM      29.96F HX  85
OELWEIN *      LGT RAIN  77  77 100 CALM      29.99F
WATERLOO       LGT RAIN  79  70  74 CALM      29.96F HX  82
$$

IAZ064-065-067-068-078-122200-
   EAST CENTRAL IOWA

CITY           SKY/WX    TMP DP  RH WIND       PRES   REMARKS
DAVENPORT      PTSUNNY   83  75  77 S3        29.95F HX  90
IOWA CITY      PTSUNNY   86  76  71 W5        29.95F HX  96
MT. PLEASANT * MOSUNNY   88  72  58 S13G20    29.95F HX  94
MUSCATINE *    MOSUNNY   90  75  62 SW15      29.93F HX 100
QUAD CITIES    PTSUNNY   87  76  69 SW7       29.93F HX  97
$$

IAZ062-063-075>077-085>089-095>099-122200-
   SOUTHEAST IOWA

CITY           SKY/WX    TMP DP  RH WIND       PRES   REMARKS
BURLINGTON     MOSUNNY   88  74  63 SW13G22   29.96F HX  96
FAIRFIELD *    SUNNY     88  73  62 S13G21    29.94F HX  96
FORT MADISON * SUNNY     90  75  62 SW13      29.97F HX 100
KEOKUK *       SUNNY     88  75  66 S14G20    29.97F HX  97
OSKALOOSA *      N/A     88  75  66 SW8       29.93F HX  97
CENTERVILLE *  SUNNY     88  75  66 S14G20    29.97F HX  97
OTTUMWA        PTSUNNY   87  74  64 S9        29.93F HX  95
WASHINGTON *   MOSUNNY   88  77  70 SW14      29.94F HX 100
$$

ABBREVIATIONS USED IN REMARKS
   TC - TEMPERATURES IN CELSIUS
  WCI - WIND CHILL INDEX
   HX - HEAT INDEX
  VSB - VISIBILITY
$$




USA.gov is the U.S. government's official web portal to all federal, state and local government web resources and services.